Location: *
(1.3500°S, 147.5000°W)
Time: 20:01:58
(UTC+00:00)

GPS 2-12 Rocket1 - Pass Details

Date: 07 April 2020
Orbit: 586 x 652 km, 20.0° (Epoch: 28 May)

Event Time Altitude Azimuth Distance (km) Brightness Sun altitude
Rises 04:33:12 0° 249° (WSW) 2,952 7.7 -10.4°
Reaches altitude 10° 04:35:36 10° 248° (WSW) 2,038 6.8 -11.0°
Maximum altitude 04:40:24 89° 156° (SSE) 642 3.1 -12.1°
Enters shadow 04:44:12 16° 69° (ENE) 1,652 4.7 -13.1°
